unique haul,date,day,sets performed,set time,haul time,effort time,effort hours,tide stage start,tide stage finish,tide height start,tide height finish,water temperature,marine mammal gate,notes
1,5/4/2019,1,1,11:30,17:10,5:40,5.666666667,flood,ebb,1.4,5.4,13.4,,Testing spiller deployment. Tunnel closed.
2,5/5/2019,2,1,14:00,17:43,3:43,3.716666667,flood,ebb,4.6,5.7,13.4,,
3,5/7/2019,3,1,12:00,18:15,6:15,6.25,LW,ebb,0.2,6.3,13.7,"closed at 16:10, opened at 16:25","California sea lion on lead, closed gate at 16:10. Opened at 16:25"
4,5/15/2019,4,1,10:40,18:00,7:20,7.333333333,flood,ebb,5.68,1.6,14.4,"closed at 12:15, opened at 12:45",Fish gate dropped while deploying lead. Lead fully dropped at 10:25. Spiller dropped at slack 10:35. Fish gate raised at 10:40. steller sea lion on lead 12:15.  
5,5/16/2019,5,1,7:45,15:50,8:05,8.083333333,LW,ebb,0.61,5.2,14,,"100-200 juv shad (~3""-5"") no other fish"
6,5/17/2019,6,1,11:30,18:25,6:55,6.916666667,flood,ebb,3.2,3.2,13.7,,Lead fully deployed at 11:30
7,5/18/2019,7,1,7:00,16:46,9:46,9.766666667,ebb,ebb,3.8,6.2,13.7,,Lifted lead at 15:05
8,5/22/2019,8,1,14:30,18:21,3:51,3.85,flood,high,1.4,6.6,14.6,,Dropped spiller at 8:00. lead fully dropped at 14:30
9,5/23/2019,9,1,8:15,16:25,8:10,8.166666667,ebb,flood,4.45,3.23,,,"Had to attach weights under tunnel entrance 16:25. Dropped again at 16:40. Hauled at 18:55, no fish.   "
10,5/24/2019,10,1,7:55,18:20,10:25,10.41666667,ebb,flood,5.49,5.6,14.5,,Began lifting lead at 16:30.
11,5/27/2019,11,1,10:00,19:00,9:00,9,ebb,flood,4.8,2.4,14.4,,"Spiller dropped at 8:45, lead fully deployed by 10:00"
12,5/28/2019,12,1,7:10,18:18,11:08,11.13333333,flood,flood,2.6,1.1,14.6,,
13,5/29/2019,13,1,9:50,18:55,9:05,9.083333333,flood,LW,3.9,1.14,14.4,,Fish gate closed at 9:06. 
14,5/30/2019,14,1,6:30,18:10,11:40,11.66666667,ebb,ebb,0.88,1.4,14.7,,12:45 lifted shore lead. 15:45 lifted lead. 
15,6/2/2019,15,1,9:20,18:50,9:30,9.5,ebb,ebb,0.2,3.4,16.1,,Spiller dropped at 9:20. 
16 - 17,6/3/2019,16,2,9:20,14:50,5:30,8.733333333,ebb,flood,0.7,5.9,15.8,"closed at 16:33, opened at 16:44","2 sets performed. Pause of fishing occurred during the day. First lift at 14:50, fish gate closed. Reset. Fish gate dropped at 16:20, sea lion in heart. Fish gate opened at 16:33, marine mammal gate closed. Marine mammal gate opened at 16:44. "
18,6/4/2019,17,1,7:10,16:55,9:45,9.75,ebb,HW,3.6,6.6,15.9,,Lead lift ~1hr. 
19,6/5/2019,18,1,7:15,18:38,11:23,11.38333333,ebb,ebb,4.4,6.1,16.2,,
20,6/6/2019,19,1,10:05,19:15,9:10,9.166666667,ebb,ebb,1.57,6.1,16.2,,
21,6/7/2019,20,1,7:15,18:15,11:00,11,ebb,HW,6.5,6.2,16.1,,"Dropped spiller at 7:15, brake malfunction on winch and heart tunnel set crooked. Repaired brake and reset tunnel. "
22,6/8/2019,21,1,6:25,18:15,11:50,11.83333333,HW,flood,7.7,5.2,16.2,,
23,6/9/2019,22,1,6:15,16:15,10:00,10,flood,flood,6.5,0.7,16.3,,
24,6/10/2019,23,1,8:15,18:30,10:15,10.25,HW,flood,6.4,2.9,16.2,,
25,6/11/2019,24,1,7:16,17:46,10:30,10.5,flood,flood,3.8,0.9,16.6,,
26,6/14/2019,25,1,12:00,19:00,7:00,7,flood,LW,5.5,1.7,18.1,,"Spiller dropped at 10:45, Lead still up. Lead fully deployed at 12:00."
27,6/15/2019,26,1,7:25,18:00,10:35,10.58333333,ebb,ebb,0.8,3.2,17.9,"closed at 16:29, opened at 17:10",
28,6/16/2019,27,1,7:30,18:40,11:10,11.16666667,ebb,ebb,1.7,2.9,17.7,,
29 - 30,6/17/2019,28,2,7:15,17:45,4:55,10.25,ebb,flood,2.9,1.3,17.8,,2 sets performed. Pause of fishing occurred during the day for repairs. 
31,6/18/2019,29,1,7:15,18:10,10:55,10.91666667,ebb,ebb,3.6,5.8,17.9,"closed at 8:30, opened at 8:55",
32,6/19/2019,30,1,7:10,15:50,8:40,8.666666667,ebb,flood,4.3,5.4,17.9,,
33,6/20/2019,31,1,10:37,18:20,7:43,7.716666667,ebb,HW,1.2,6.4,18.1,,
34,6/21/2019,32,1,7:20,18:00,10:40,10.66666667,ebb,flood,5,5.9,17.9,,
35,6/22/2019,33,1,9:35,19:13,9:38,9.633333333,ebb,HW,2.7,5.8,17.9,,
36,6/23/2019,34,1,6:30,19:10,12:40,12.66666667,HW,flood,5.8,5.2,17.6,,
37,6/24/2019,35,1,7:00,19:15,12:15,12.25,flood,flood,5.1,4.8,18.1,,
38,6/25/2019,36,1,8:30,17:03,8:33,8.55,HW,flood,4.6,1.3,17.7,,
39 - 40,6/26/2019,37,2,7:30,17:30,3:45,6.8333333,flood ,ebb,3.1,4,17.9,,2 sets performed. Pause of fishing occurred during the day. partial lift at 11:15 spill at 14:15. partial lift at 17:30 spill at 19:10
41,6/27/2019,38,1,6:30,11:40,5:10,5.166666667,flood,HW,1,4.4,18.3,,Shore lead lifted at 11:10. 
42,7/2/2019,39,1,7:45,18:52,11:07,11.11666667,ebb,ebb,1.7,3.9,18.9,,
43,7/3/2019,40,1,8:30,12:24,3:54,3.9,ebb,flood,1.6,0.6,19.2,,
